Regional Weather Roundup
Issued by NWS

Home | Current Version | Previous Version | Graphics & Text | Print | Product List | Glossary On
Versions: 1 2 3 4 5 6 7 8 9 10 11 12 13 14 15 16 17 18 19 20 21 22 23 24 25 26 27 28 29 30 31 32 33 34 35 36 37 38 39 40 41 42 43 44 45 46 47 48 49 50
000
ASUS43 KIND 180559
RWRIN

WEATHER ROUNDUP FOR INDIANA
NATIONAL WEATHER SERVICE INDIANAPOLIS IN
100 AM EST SUN FEB 18 2018

NOTE: "FAIR" INDICATES FEW OR NO CLOUDS BELOW 12,000 FEET WITH NO
SIGNIFICANT WEATHER AND/OR OBSTRUCTIONS TO VISIBILITY.

* - STATION DOES NOT REPORT WEATHER SUCH AS PRECIPITATION OR FOG.

+ - STATION NOT QUALITY CONTROLLED BY THE NATIONAL WEATHER SERVICE.
    USE DATA WITH CAUTION...ESPECIALLY DEWPOINT AND RELATIVE
    HUMIDITY OBSERVATIONS.

INZ001>003-010>013-019-020-180700-
NORTHWEST INDIANA

CITY           SKY/WX    TMP DP  RH WIND       PRES   REMARKS
KNOX *+        CLOUDY    30  27  86 W8        30.14R WCI  23
MONTICELLO +   CLOUDY    29  26  85 W9        30.18R WCI  21
6HR MIN TEMP:  29; 6HR MAX TEMP:  33;

VALPARAISO     CLOUDY    30  24  78 W8        30.15R WCI  22

$$

LMZ046-743>745-180700-
SOUTHERN LAKE MICHIGAN

STATION/POSITION TIME  TEMP    WIND        PRES    WAVE
                       AIR SEA DIR/SP/G            HT
                 (UTC) (F)     (DEG/KT/KT) (MB)    (FT)
BURNS HARBOR     0540   30     300/ 10/ 12 1021.3R
MICHIGAN CITY    0530   29     270/ 11/ 12   N/A

$$

INZ004-005-014>016-021>024-180700-
NORTH CENTRAL INDIANA

CITY           SKY/WX    TMP DP  RH WIND       PRES   REMARKS
GOSHEN         CLOUDY    31  25  78 NW15      30.11R WCI  20
6HR MIN TEMP:  31; 6HR MAX TEMP:  33; 6HR PCP:  0.03;

PERU/GRISSOM   CLOUDY    30  30 100 W13       30.16R WCI  20
6HR MIN TEMP:  30; 6HR MAX TEMP:  33; 6HR PCP:  0.01;

SOUTH BEND     CLOUDY    28  24  85 NW10      30.13R WCI  19
6HR MIN TEMP:  28; 6HR MAX TEMP:  32; 6HR PCP:  0.04;

WARSAW +       CLOUDY    30  28  93 W14       30.12R WCI  20

$$

INZ006>009-017-018-025>027-180700-
NORTHEAST INDIANA

CITY           SKY/WX    TMP DP  RH WIND       PRES   REMARKS
FORT WAYNE     MOCLDY    32  28  85 W15       30.13R WCI  22
6HR MIN TEMP:  31; 6HR MAX TEMP:  35; 6HR PCP:  0.08;

KENDALLVILLE + CLOUDY    32  29  90 W8G17     30.09R WCI  25

$$

INZ028-029-035-036-043>045-051>053-180700-
WEST CENTRAL INDIANA

CITY           SKY/WX    TMP DP  RH WIND       PRES   REMARKS
LAFAYETTE      CLOUDY    29  26  89 W15       30.21R WCI  18
6HR MIN TEMP:  29; 6HR MAX TEMP:  33; 6HR PCP: TRACE;

TERRE HAUTE    FAIR      32  29  88 NW9       30.23S WCI  24
6HR MIN TEMP:  32; 6HR MAX TEMP:  38; 6HR PCP: TRACE;


$$

INZ030>032-037>040-046>048-054>057-064-065-180700-
CENTRAL INDIANA

CITY           SKY/WX    TMP DP  RH WIND       PRES   REMARKS
GREENWOOD *+   CLOUDY   N/A N/A N/A W7        30.21R
INDIANAPOLIS   CLOUDY    32  28  85 NW12      30.21R WCI  23
6HR MIN TEMP:  32; 6HR MAX TEMP:  36; 6HR PCP:  0.02;

-EAGLE CREEK   MOCLDY    33  26  75 NW15      30.20R WCI  23
6HR MIN TEMP:  32; 6HR MAX TEMP:  36; 6HR PCP:  0.01;

KOKOMO +       CLOUDY    30  27  86 W14       30.18R WCI  20
MT COMFORT *+  CLOUDY    32  30  93 W14       30.20R WCI  22
SHELBYVILLE    FAIR      34  26  72 NW13      30.20R WCI  25
6HR MIN TEMP:  34; 6HR MAX TEMP:  37; 6HR PCP:  0.04;


$$

INZ033-034-041-042-049-050-058-059-180700-
EAST CENTRAL INDIANA

CITY           SKY/WX    TMP DP  RH WIND       PRES   REMARKS
MUNCIE         CLOUDY    33  27  78 W15       30.17R WCI  23
6HR MIN TEMP:  33; 6HR MAX TEMP:  36; 6HR PCP:  0.01;

RICHMOND +     CLOUDY    32  32 100 NW18G24   30.16R WCI  20

$$

INZ060-061-067>069-081>083-085>088-180700-
SOUTHWEST INDIANA

CITY           SKY/WX    TMP DP  RH WIND       PRES   REMARKS
EVANSVILLE     FAIR      33  32  96 CALM      30.26R FOG
6HR MIN TEMP:  32; 6HR MAX TEMP:  41;

HUNTINGBURG +  MOCLDY    33  32  96 CALM      30.25S
6HR MIN TEMP:  33; 6HR MAX TEMP:  39; 6HR PCP: TRACE;


$$

INZ062-063-066-070>080-084-089>092-180700-
SOUTH CENTRAL AND SOUTHEAST INDIANA

CITY           SKY/WX    TMP DP  RH WIND       PRES   REMARKS
BLOOMINGTON    FAIR      33  28  81 NW5       30.21R WCI  29
6HR MIN TEMP:  33; 6HR MAX TEMP:  37; 6HR PCP: TRACE;

MADISON *+     MOCLDY    36  32  87 W8        30.24R WCI  29
SEYMOUR +      FAIR      36  28  75 NW8       30.23R WCI  29

$$




USA.gov is the U.S. government's official web portal to all federal, state and local government web resources and services.